AEU591 EGCC-LEMG

Flight info

Callsign AEU591
Flight time N/A
Altitude 23000
Route KUXEM P17 BEPHE/N0431F380 DCT OSSEP DCT ELNIF DCT ZESPE DCT KLAKI DCT SALCO/N0430F390 DCT NOVAN DCT DELOG DCT CRISA N864 VULPE
Aircraft B737/M-SDE2E3FGHIRWXY/LB1

Departure

Time 2026-05-08 09:06
Airport Manchester Airport (EGCC)

Arrival

Time N/A
Airport Málaga-Costa del Sol Airport (LEMG)
Time Latitude Longitude Altitude Speed Heading
2026-05-08 08:44 53.36443 -2.27732 254 ft 0 kts 45°
2026-05-08 08:58 53.36435 -2.27744 254 ft 4 kts 45°
2026-05-08 08:58 53.36416 -2.27776 254 ft 4 kts 45°
2026-05-08 08:58 53.36401 -2.27802 254 ft 4 kts 41°
2026-05-08 08:59 53.36379 -2.27823 254 ft 4 kts 359°
2026-05-08 08:59 53.36358 -2.27808 254 ft 4 kts 314°
2026-05-08 08:59 53.36345 -2.27777 254 ft 1 kts 284°
2026-05-08 08:59 53.36341 -2.27746 254 ft 0 kts 284°
2026-05-08 09:01 53.36341 -2.27749 254 ft 1 kts 284°
2026-05-08 09:01 53.36354 -2.27799 254 ft 7 kts 306°
2026-05-08 09:02 53.36397 -2.27886 254 ft 13 kts 282°
2026-05-08 09:02 53.36345 -2.28002 254 ft 13 kts 220°
2026-05-08 09:02 53.36269 -2.28070 254 ft 13 kts 190°
2026-05-08 09:02 53.36192 -2.28028 254 ft 13 kts 134°
2026-05-08 09:03 53.36117 -2.27924 254 ft 15 kts 143°
2026-05-08 09:03 53.36032 -2.27811 254 ft 16 kts 142°
2026-05-08 09:03 53.35938 -2.27724 254 ft 17 kts 177°
2026-05-08 09:03 53.35811 -2.27733 250 ft 20 kts 186°
2026-05-08 09:04 53.35666 -2.27751 242 ft 22 kts 174°
2026-05-08 09:04 53.35642 -2.27621 244 ft 15 kts 54°
2026-05-08 09:04 53.35599 -2.27493 244 ft 14 kts 141°
2026-05-08 09:04 53.35538 -2.27412 246 ft 14 kts 141°
2026-05-08 09:05 53.35447 -2.27290 247 ft 19 kts 141°
2026-05-08 09:05 53.35335 -2.27185 243 ft 19 kts 180°
2026-05-08 09:05 53.35194 -2.27230 235 ft 24 kts 191°
2026-05-08 09:05 53.35027 -2.27304 225 ft 26 kts 211°
2026-05-08 09:06 53.34886 -2.27573 221 ft 56 kts 231°
2026-05-08 09:06 53.34466 -2.28424 224 ft 130 kts 232°
2026-05-08 09:06 53.33779 -2.29821 423 ft 171 kts 229°
2026-05-08 09:06 53.32984 -2.31363 1338 ft 177 kts 227°
2026-05-08 09:07 53.32224 -2.32960 2314 ft 177 kts 235°
2026-05-08 09:07 53.31792 -2.34996 2941 ft 204 kts 266°
2026-05-08 09:07 53.32049 -2.37358 3714 ft 206 kts 280°
2026-05-08 09:07 53.32372 -2.39724 4474 ft 211 kts 280°
2026-05-08 09:08 53.32606 -2.42144 4926 ft 210 kts 266°
2026-05-08 09:08 53.32396 -2.44550 4987 ft 208 kts 252°
2026-05-08 09:08 53.31988 -2.46888 5013 ft 213 kts 250°
2026-05-08 09:08 53.31512 -2.49384 5284 ft 238 kts 250°
2026-05-08 09:09 53.30983 -2.52194 5696 ft 262 kts 250°
2026-05-08 09:09 53.30436 -2.55136 6709 ft 266 kts 251°
2026-05-08 09:09 53.29898 -2.58054 7767 ft 266 kts 251°
2026-05-08 09:09 53.29228 -2.60942 8770 ft 268 kts 244°
2026-05-08 09:10 53.28397 -2.63742 9776 ft 270 kts 236°
2026-05-08 09:10 53.27103 -2.66023 10567 ft 278 kts 218°
2026-05-08 09:10 53.25467 -2.68022 10841 ft 304 kts 214°
2026-05-08 09:10 53.23675 -2.70039 11498 ft 315 kts 214°
2026-05-08 09:11 53.21839 -2.72094 12327 ft 320 kts 214°
2026-05-08 09:11 53.19979 -2.74196 13213 ft 325 kts 214°
2026-05-08 09:11 53.18103 -2.76335 14066 ft 330 kts 214°
2026-05-08 09:11 53.16196 -2.78524 14915 ft 334 kts 214°
2026-05-08 09:12 53.14279 -2.80731 15829 ft 335 kts 214°
2026-05-08 09:12 53.12351 -2.82951 16740 ft 338 kts 215°
2026-05-08 09:12 53.10404 -2.85189 17615 ft 342 kts 214°
2026-05-08 09:12 53.08270 -2.86975 18434 ft 348 kts 198°
2026-05-08 09:13 53.05866 -2.87677 19206 ft 354 kts 184°
2026-05-08 09:13 53.03394 -2.87331 19944 ft 360 kts 174°
2026-05-08 09:13 53.00903 -2.86646 20667 ft 365 kts 172°
2026-05-08 09:13 52.98384 -2.85902 21376 ft 370 kts 172°